Location: Unspecified
(0.0000°N, 0.0000°E)
Time: 12:36:07
(UTC+00:00)

STARLINK-36491 - Pass Details

Date: 23 February 2026
Orbit: 482 x 484 km, 43.0° (Epoch: 8 March)

Event Time Altitude Azimuth Distance (km) Brightness Sun altitude
Exits shadow 04:25:23 33° 65° (ENE) 836 ? -26.6°
Drops below altitude 10° 04:28:20 10° 112° (ESE) 1,669 ? -25.8°
Sets 04:30:39 0° 121° (ESE) 2,550 ? -25.3°
